Regional Weather Roundup
Issued by NWS

Home | Current Version | Previous Version | Graphics & Text | Print | Product List | Glossary On
Versions: 1 2 3 4 5 6 7 8 9 10 11 12 13 14 15 16 17 18 19 20 21 22 23 24 25 26 27 28 29 30 31 32 33 34 35 36 37 38 39 40 41 42 43 44 45 46 47 48 49 50
000
ASUS43 KLOT 062208
RWRIL

ILLINOIS REGIONAL WEATHER ROUNDUP
NATIONAL WEATHER SERVICE CHICAGO/ROMEOVILLE IL
400 PM CST SAT FEB 06 2016

NOTE: "FAIR" INDICATES FEW OR NO CLOUDS BELOW 12,000 FEET WITH NO
SIGNIFICANT WEATHER AND/OR OBSTRUCTIONS TO VISIBILITY.

* THESE STATIONS ARE NOT UNDER NWS QUALITY CONTROL. THEY ALSO MAY NOT
  REPORT WEATHER SUCH AS PRECIPITATION OR FOG.

ILZ001-002-007-009-015-016-024-062300-
NORTHWEST ILLINOIS

CITY           SKY/WX    TMP DP  RH WIND       PRES   REMARKS
MOLINE         SUNNY     43  29  57 W12       30.15R
STERLING*      SUNNY     43  28  56 W9        30.12S
SAVANNA*       MOSUNNY   35  29  81 NW7       30.16S WCI  29
$$

ILZ003-004-008-010-011-017-018-062300-
NORTH CENTRAL ILLINOIS

CITY           SKY/WX    TMP DP  RH WIND       PRES   REMARKS
ROCKFORD       MOSUNNY   40  27  59 W10       30.15F
FREEPORT*      SUNNY     37  29  74 SW6       30.15S WCI  32
ROCHELLE*      SUNNY     40  31  69 SW9       30.14F
DE KALB*       SUNNY     41  29  63 SW10      30.14F
PERU*          SUNNY     42  26  52 SW10      30.15F
$$

ILZ005-006-012>014-019>023-062300-
NORTHEAST ILLINOIS

CITY           SKY/WX    TMP DP  RH WIND       PRES   REMARKS
CHICAGO-OHARE  MOSUNNY   41  28  60 SW7       30.14F
CHICAGO-MIDWAY MOSUNNY   42  27  55 SW13      30.16F
AURORA         SUNNY     42  29  59 SW13      30.15F
LANSING*       MOSUNNY   40  29  65 SW10      30.18F
JOLIET*        SUNNY     43  30  60 SW6       30.16F
WAUKEGAN       SUNNY     39  28  64 SW8       30.13F WCI  33
DUPAGE AIRPORT SUNNY     40  28  62 SW12      30.14F
KANKAKEE*      SUNNY     43  31  61 SW7       30.18F
WHEELING       MOSUNNY   41  28  60 SW7       30.15F
MORRIS*          N/A     43  30  60 SW8       30.13F
ROMEOVILLE*    SUNNY     40  29  64 SW12      30.16F
NORTHERLY ISL    N/A     42  27  55 W10         N/A
$$

LMZ740>746-062300-
SOUTHERN LAKE MICHIGAN

STATION/POSITION SKY/WX   TEMP    WIND        PRES    VSBY  WAVE
                          AIR SEA DIR/SP/G                  HT/PER
                          (F)     (DEG/KT/KT) (MB)    (MI)  (FT/S)
HARRISON CRIB              41     230/ 14/ 19   N/A
BURNHAM HARBOR             41     250/  7/ 13   N/A
CALUMET HARBOR             40     200/ 12/ 17 1020.9F
BURNS HARBOR               40     230/ 10/ 15 1022.7S
MICHIGAN CITY              38     220/ 11/ 13   N/A
$$

ILZ025>027-034>036-040-047-049-050-058-095>099-062300-
WEST-CENTRAL ILLINOIS

CITY           SKY/WX    TMP DP  RH WIND       PRES   REMARKS
QUINCY         SUNNY     49  27  42 W10       30.17F
GALESBURG*     SUNNY     45  29  52 SW12      30.15S
MACOMB*        SUNNY     47  31  52 SW15      30.18F
JACKSONVILLE*  SUNNY     52  32  46 SW9       30.17F
PITTSFIELD*    SUNNY     51  30  44 SW10      30.18F
$$

ILZ028>032-037-038-041>044-048-051>054-059>061-062300-
CENTRAL ILLINOIS

CITY           SKY/WX    TMP DP  RH WIND       PRES   REMARKS
PONTIAC        SUNNY     45  32  60 SW10      30.18S
BLOOMINGTON    SUNNY     46  32  58 SW10      30.18F
DECATUR        SUNNY     49  31  49 SW14      30.19F
PEORIA         SUNNY     47  25  42 SW12      30.17F
LACON*         SUNNY     46  26  46 SW6       30.15F
LINCOLN*       SUNNY     49  34  56 SW5       30.18S
SPRINGFIELD    SUNNY     51  31  46 SW9       30.18F
TAYLORVILLE    SUNNY     48  34  57 SW13G18   30.20S
$$

ILZ033-039-045-046-055>057-062-063-062300-
EAST-CENTRAL ILLINOIS

CITY           SKY/WX    TMP DP  RH WIND       PRES   REMARKS
CHAMPAIGN      SUNNY     46  32  58 SW12      30.20S
RANTOUL*       SUNNY     46  33  60 SW10      30.19S
MATTOON        SUNNY     48  29  47 S8        30.20S
PARIS*         SUNNY     46  32  58 SW8       30.22S
$$

ILZ079-100>102-062300-
SOUTHWEST ILLINOIS

CITY           SKY/WX    TMP DP  RH WIND       PRES   REMARKS
BELLEVILLE     SUNNY     57  27  31 SW12      30.20S
CAHOKIA*       MOSUNNY   56  25  30 W9        30.21R
SPARTA*        SUNNY     55  24  30 SW8       30.23S
$$

ILZ064>066-069>071-074>076-080>082-084>086-088>090-092>094-062300-
SOUTH-CENTRAL ILLINOIS

CITY           SKY/WX    TMP DP  RH WIND       PRES   REMARKS
CARBONDALE     SUNNY     55  17  22 SW9       30.24S
CAIRO*         SUNNY     53  30  41 S9        30.27F
EFFINGHAM*     SUNNY     52  29  41 S12G18    30.23F
MARION         SUNNY     55  21  26 SW8       30.25S
MT. VERNON     SUNNY     54  27  35 SW9       30.24F
CENTRALIA*     SUNNY     54  30  40 W9        30.22S
SALEM*         SUNNY     55  26  33 SW12      30.22S
METROPOLIS*    SUNNY     54  27  35 SW8       30.28S
$$

ILZ067-068-072-073-078-083-087-091-062300-
SOUTHEAST ILLINOIS

CITY           SKY/WX    TMP DP  RH WIND       PRES   REMARKS
LAWRENCEVILLE  SUNNY     51  26  37 SW10      30.24F
FLORA*         SUNNY     55  25  31 SW9       30.23F
FAIRFIELD*     SUNNY     53  23  31 SW9       30.23F
HARRISBURG*    SUNNY     55  26  32 SW3       30.25S
ROBINSON*      SUNNY     50  27  40 SW9       30.24S
CARMI*         SUNNY     53  27  36 W5        30.25S
$$

ABBREVIATIONS USED IN REMARKS
   TC - TEMPERATURE IN CELSIUS
  WCI - WIND CHILL INDEX
   HX - HEAT INDEX
  VSB - VISIBILITY
$$




USA.gov is the U.S. government's official web portal to all federal, state and local government web resources and services.